[[{"header":{"parameterUnit":"m.s-1","parameterCategory":1,"la1":30.2991,"la2":30.254,"lo1":-89.0895,"lo2":-89.0444,"dy":0.0017,"dx":0.0017,"nx":28,"ny":28,"refTime":"2024-12-15T03:00:00:Z","depth":0,"parameterNumber":2,"parameterNumberName":"U-component_of_WINDS"},"data":[0,0,0,0,0,0,0,0,0,0,0,0,0,0,0,0,0,0,0,0,0,0,0,0,0,0,0,0,0,0,0,0,0,0,0,0,0,0,0,0,0,0,0,0,0,0,0,0,0,0,0,0,0,0,0,0,0,0,-4.4646,-4.4646,0,-4.4655,-4.4655,-4.4655,-4.4569,-4.4566,-4.4564,-4.4561,-4.4572,-4.4574,-4.4577,0,0,0,0,0,0,0,0,0,0,0,0,0,-4.4557,-4.4559,-4.4646,-4.4646,-4.4646,-4.4655,-4.4655,-4.4655,-4.4569,-4.4566,-4.4563,-4.456,-4.4571,-4.4574,-4.4577,0,0,0,0,0,0,0,0,0,0,0,0,0,-4.4584,-4.456,-4.4646,-4.4604,-4.4601,-4.4655,-4.4655,-4.4655,-4.457,-4.4566,-4.4562,-4.4559,-4.457,-4.4574,-4.4577,-4.4672,0,0,-4.4589,-4.4591,0,0,0,0,0,0,0,0,-4.4582,-4.4587,-4.461,-4.4607,-4.4603,-4.4607,-4.4627,-4.4661,-4.457,-4.4581,-4.4561,-4.4557,-4.4587,-4.4589,-4.4598,-4.4673,-4.4673,-4.4589,-4.4592,-4.4593,-4.4594,0,0,0,0,0,0,0,-4.4581,-4.4586,-4.4649,-4.4611,-4.4606,-4.4586,-4.4586,-4.4633,-4.4604,-4.458,-4.4574,-4.4576,-4.4584,-4.4595,-4.4598,-4.4673,-4.4589,-4.4592,-4.4595,-4.4596,-4.4828,-4.4832,0,0,0,0,0,0,-4.4584,-4.4585,-4.4649,-4.465,-4.4584,-4.459,-4.459,-4.4609,-4.4603,-4.4599,-4.4579,-4.4572,-4.459,-4.4594,-4.4598,-4.4709,-4.4593,-4.4597,-4.4599,-4.4824,-4.4829,-4.4833,0,0,0,0,0,0,-4.4583,-4.4591,-4.4649,-4.4616,-4.4622,-4.4596,-4.4618,-4.4611,-4.4622,-4.4602,-4.4597,-4.4596,-4.4587,-4.4593,-4.4655,-4.4708,-4.4598,-4.4602,-4.482,-4.4826,-4.4831,-4.4933,0,0,0,0,0,0,-4.458,-4.4591,-4.4626,-4.4617,-4.4624,-4.4705,-4.4621,-4.4614,-4.4629,-4.462,-4.4616,-4.4612,-4.4585,-4.465,-4.4659,-4.4712,-4.4605,-4.4815,-4.4823,-4.4829,-4.4924,-4.4941,-4.4956,0,0,0,0,0,-4.4577,-4.4654,-4.4628,-4.4636,-4.4667,-4.4708,-4.4712,-4.4679,-4.4633,-4.4669,-4.4657,-4.4612,-4.4702,-4.4657,-4.4666,-4.4721,-4.4811,-4.482,-4.4829,-4.4917,-4.4938,-4.4955,0,0,0,0,0,0,-4.4669,-4.4652,-4.4623,-4.4698,-4.4706,-4.4694,-4.4737,-4.4701,-4.4721,-4.4712,-4.467,-4.467,-4.474,-4.4737,-4.4687,-4.4814,-4.4749,-4.476,-4.4813,-4.4832,-4.4847,-4.4846,-4.4608,0,0,0,0,0,-4.4698,-4.4732,-4.4716,-4.4784,-4.4789,-4.4763,-4.478,-4.4754,-4.4759,-4.4762,-4.4754,-4.4762,-4.4791,-4.4812,-4.4838,-4.4924,-4.4923,-4.4967,-4.4983,-4.4995,-4.5005,-4.5052,-4.5071,-4.4862,-4.4862,-4.4862,0,0,-4.4758,-4.4753,-4.4777,-4.4802,-4.4805,-4.4842,-4.4766,-4.4808,-4.4836,-4.4768,-4.4826,-4.4822,-4.4827,-4.4903,-4.4935,-4.4902,-4.5063,-4.5007,-4.5017,-4.502,-4.5063,-4.5083,-4.51,-4.4868,-4.4867,-4.4866,0,0,-4.4886,-4.4886,-4.4943,-4.4947,-4.4952,-4.4934,-4.4949,-4.4943,-4.4937,-4.4995,-4.4945,-4.4978,-4.503,-4.5037,-4.5047,-4.5181,-4.5142,-4.5191,-4.5272,-4.5318,-4.5335,-4.5349,-4.5397,-4.5415,-4.5201,-4.5201,-4.5201,0,-4.496,-4.5013,-4.4977,-4.5023,-4.5036,-4.4978,-4.5036,-4.5042,-4.5056,-4.5067,-4.503,-4.5095,-4.5095,-4.5171,-4.5204,-4.5214,-4.523,-4.519,-4.5335,-4.5349,-4.5362,-4.5408,-4.5426,-4.5207,-4.5207,-4.5206,-4.5205,0,-4.5104,-4.5143,-4.5189,-4.5203,-4.5222,-4.5274,-4.5247,-4.527,-4.5244,-4.5231,-4.5291,-4.529,-4.5315,-4.5331,-4.5305,-4.5405,-4.5384,-4.5342,-4.5276,-4.5389,-4.5431,-4.5448,-4.5216,-4.5214,-4.5212,-4.521,0,0,-4.5287,-4.5283,-4.5301,-4.5307,-4.531,-4.5339,-4.539,-4.5415,-4.5436,-4.5448,-4.549,-4.5536,-4.5498,-4.551,-4.5485,-4.5525,-4.5633,-4.5478,-4.5477,-4.5507,-4.5743,-4.5774,-4.5795,-4.5607,-4.561,-4.5613,-4.5742,0,-4.5412,-4.5497,-4.5468,-4.5555,-4.559,-4.5537,-4.5581,-4.5588,-4.5578,-4.5608,-4.5597,-4.563,-4.5577,-4.5584,-4.5622,-4.5611,-4.5679,-4.5602,-4.5646,-4.5648,-4.5645,-4.5817,-4.5849,-4.5972,-4.5759,-4.5761,-4.5763,0,-4.5568,-4.5587,-4.5678,-4.5676,-4.569,-4.573,-4.5752,-4.5781,-4.5788,-4.5778,-4.5793,-4.576,-4.581,-4.5746,-4.5815,-4.5763,-4.578,-4.5778,-4.5782,-4.5784,-4.5712,-4.5823,-4.601,-4.6028,-4.5789,-4.5787,-4.5785,0,-4.5693,-4.5742,-4.5802,-4.581,-4.5809,-4.5839,-4.584,-4.5844,-4.5862,-4.5881,-4.5892,-4.5918,-4.5931,-4.5952,-4.5928,-4.5882,-4.6002,-4.5934,-4.5995,-4.5996,-4.6021,-4.602,-4.6213,-4.6034,-4.6034,-4.6033,-4.6033,0,-4.5835,-4.5893,-4.5859,-4.5896,-4.596,-4.5926,-4.599,-4.5986,-4.5991,-4.6027,-4.5983,-4.6018,-4.5983,-4.6016,-4.5997,-4.6058,-4.6065,-4.6059,-4.6053,-4.6062,-4.6063,-4.6072,-4.6063,-4.6038,-4.6037,-4.6036,-4.6035,0,-4.5984,-4.5963,-4.6026,-4.6021,-4.6022,-4.6069,-4.6065,-4.61,-4.6088,-4.6134,-4.6144,-4.6125,-4.6161,-4.6139,-4.6176,-4.6163,-4.6243,-4.6226,-4.624,-4.6235,-4.6298,-4.6292,-4.6502,-4.6528,-4.6333,-4.6335,-4.6337,0,-4.6075,-4.6118,-4.6119,-4.614,-4.6144,-4.6179,-4.6197,-4.6167,-4.6187,-4.6201,-4.6235,-4.6267,-4.6291,-4.6353,-4.6342,-4.6371,-4.6354,-4.6426,-4.6358,-4.6366,-4.6355,-4.6352,-4.6357,-4.6439,-4.6441,-4.6443,-4.6445,0,-4.6239,-4.6228,-4.6255,-4.6281,-4.6304,-4.6322,-4.6336,-4.6357,-4.6326,-4.6352,-4.6389,-4.6408,-4.6447,-4.648,-4.6505,-4.6506,-4.6472,-4.6467,-4.6482,-4.6492,-4.6498,-4.6496,-4.6277,-4.6461,-4.646,-4.6459,-4.6458,-4.6457,-4.6362,-4.6398,-4.6405,-4.6438,-4.6446,-4.6461,-4.6494,-4.6487,-4.6517,-4.6546,-4.6526,-4.657,-4.6579,-4.6609,-4.6616,-4.665,-4.6621,-4.6644,-4.6649,-4.6655,-4.6664,-4.6494,-4.6655,-4.6654,-4.6654,-4.6653,-4.6653,0,-4.6524,-4.6526,-4.6557,-4.6579,-4.6605,-4.6571,-4.6586,-4.661,-4.6649,-4.666,-4.6686,-4.6729,-4.6762,-4.6756,-4.6786,-4.6815,-4.68,-4.6824,-4.6821,-4.6822,-4.6688,-4.6671,-4.6836,-4.6836,-4.6836,-4.6836,-4.6836,-4.6835,-4.6611,-4.6671,-4.6661,-4.6726,-4.6727,-4.677,-4.6782,-4.6796,-4.6805,-4.6855,-4.6882,-4.6878,-4.6883,-4.6913,-4.6943,-4.694,-4.6953,-4.6983,-4.6975,-4.6849,-4.6831,-4.6814,-4.6798,-4.6987,-4.6987,-4.7106,-4.7107,-4.7108]},{"header":{"parameterUnit":"m.s-1","parameterCategory":1,"la1":30.2991,"la2":30.254,"lo1":-89.0895,"lo2":-89.0444,"dy":0.0017,"dx":0.0017,"nx":28,"ny":28,"refTime":"2024-12-15T03:00:00:Z","depth":0,"parameterNumber":3,"parameterNumberName":"V-component_of_WINDS"},"data":[0,0,0,0,0,0,0,0,0,0,0,0,0,0,0,0,0,0,0,0,0,0,0,0,0,0,0,0,0,0,0,0,0,0,0,0,0,0,0,0,0,0,0,0,0,0,0,0,0,0,0,0,0,0,0,0,0,0,0.1412,0.1411,0,0.1358,0.1358,0.1357,0.137,0.1371,0.1372,0.1373,0.1314,0.1311,0.1309,0,0,0,0,0,0,0,0,0,0,0,0,0,0.1522,0.152,0.1412,0.1411,0.141,0.1358,0.1358,0.1357,0.137,0.1371,0.1372,0.1373,0.1315,0.1312,0.1309,0,0,0,0,0,0,0,0,0,0,0,0,0,0.1472,0.1519,0.1412,0.1411,0.141,0.1358,0.1358,0.1357,0.1369,0.1371,0.1373,0.1374,0.1316,0.1312,0.1308,0.1253,0,0,0.1296,0.1295,0,0,0,0,0,0,0,0,0.1474,0.1468,0.1411,0.1411,0.141,0.1372,0.1375,0.1322,0.1369,0.1385,0.1373,0.1375,0.1332,0.1327,0.1313,0.125,0.1248,0.1296,0.1294,0.1292,0.1291,0,0,0,0,0,0,0,0.1478,0.147,0.139,0.1411,0.1409,0.1412,0.1406,0.1365,0.135,0.1383,0.1384,0.1378,0.1332,0.1317,0.1312,0.1247,0.1296,0.1293,0.129,0.1289,0.1138,0.1137,0,0,0,0,0,0,0.1483,0.1473,0.1392,0.1389,0.1447,0.1409,0.1402,0.1383,0.135,0.1347,0.1377,0.1379,0.1322,0.1316,0.131,0.1245,0.1292,0.1289,0.1286,0.114,0.1138,0.1136,0,0,0,0,0,0,0.1485,0.1475,0.1394,0.1431,0.1421,0.1405,0.1383,0.1381,0.1366,0.1345,0.1342,0.1365,0.1323,0.1315,0.1268,0.1243,0.1287,0.1283,0.1142,0.1139,0.1137,0.1113,0,0,0,0,0,0,0.1488,0.1476,0.1455,0.143,0.1419,0.1354,0.1381,0.1379,0.136,0.1362,0.1333,0.133,0.1324,0.1274,0.1264,0.1238,0.128,0.1144,0.1141,0.1138,0.1116,0.111,0.1105,0,0,0,0,0,0.1492,0.1449,0.1454,0.1445,0.1393,0.1352,0.1346,0.1341,0.1358,0.1337,0.1324,0.1331,0.1247,0.1269,0.1258,0.1231,0.1146,0.1142,0.1138,0.1118,0.1111,0.1105,0,0,0,0,0,0,0.147,0.1446,0.1451,0.14,0.1378,0.1355,0.1328,0.1333,0.1305,0.1308,0.1303,0.1296,0.1248,0.1234,0.1259,0.1177,0.1199,0.1192,0.1187,0.118,0.1175,0.1179,0.1277,0,0,0,0,0,0.1459,0.1429,0.141,0.1366,0.1355,0.1344,0.1326,0.1324,0.1301,0.1292,0.1275,0.1252,0.122,0.1199,0.1169,0.1114,0.1108,0.109,0.1084,0.108,0.1075,0.1046,0.1038,0.1123,0.1123,0.1124,0,0,0.1436,0.142,0.1401,0.1361,0.1345,0.1313,0.1336,0.1301,0.1278,0.1286,0.1241,0.1228,0.1201,0.1151,0.1127,0.1138,0.105,0.1075,0.1072,0.1069,0.1041,0.1033,0.1026,0.1121,0.1121,0.1122,0,0,0.1379,0.1363,0.1326,0.131,0.1285,0.1278,0.1269,0.1245,0.1238,0.1193,0.1199,0.117,0.1116,0.1097,0.108,0.1019,0.1024,0.1009,0.0979,0.0951,0.0945,0.0939,0.0917,0.091,0.1003,0.1003,0.1003,0,0.1353,0.1308,0.1306,0.1272,0.1254,0.1263,0.1225,0.1208,0.1174,0.1162,0.1174,0.1108,0.109,0.1036,0.1021,0.1007,0.0996,0.1012,0.0946,0.094,0.0934,0.0914,0.0906,0.1002,0.1002,0.1002,0.1002,0,0.1278,0.1246,0.1219,0.1189,0.1168,0.1132,0.1124,0.1103,0.1104,0.1096,0.1051,0.103,0.0997,0.0984,0.0983,0.0929,0.0937,0.0948,0.097,0.0925,0.0905,0.0897,0.0999,0.1,0.1,0.1001,0,0,0.1204,0.1175,0.1165,0.1152,0.1126,0.1101,0.1066,0.1035,0.1018,0.0994,0.0964,0.0919,0.093,0.0911,0.0908,0.0884,0.0837,0.0898,0.0897,0.0888,0.0778,0.077,0.0761,0.0841,0.0839,0.0838,0.078,0,0.1145,0.1085,0.1083,0.1027,0.0998,0.1007,0.0976,0.0956,0.0948,0.0921,0.0911,0.088,0.0895,0.0884,0.086,0.0848,0.0815,0.0852,0.0813,0.0811,0.082,0.0751,0.0743,0.0689,0.0773,0.0772,0.0771,0,0.1068,0.1045,0.0987,0.0967,0.0955,0.0928,0.09,0.0875,0.0853,0.0849,0.0829,0.083,0.0794,0.0817,0.0767,0.0792,0.0776,0.0768,0.0765,0.0762,0.0788,0.0746,0.0672,0.0664,0.0759,0.076,0.076,0,0.1021,0.0975,0.0935,0.0924,0.0899,0.088,0.0869,0.0849,0.0831,0.0806,0.0795,0.0766,0.075,0.0727,0.0721,0.0738,0.067,0.0693,0.0665,0.0666,0.065,0.0652,0.0573,0.0639,0.0639,0.064,0.064,0,0.0956,0.092,0.0914,0.0889,0.085,0.0848,0.0809,0.0799,0.0781,0.0754,0.0759,0.0733,0.0726,0.0699,0.0694,0.0653,0.0646,0.0641,0.064,0.0641,0.0641,0.063,0.0634,0.0637,0.0638,0.0638,0.0639,0,0.0897,0.0891,0.0848,0.083,0.0824,0.0796,0.078,0.0756,0.0749,0.0715,0.0706,0.0694,0.0663,0.0655,0.0616,0.0613,0.0565,0.0567,0.0573,0.0573,0.0546,0.0549,0.0458,0.0446,0.052,0.0519,0.0518,0,0.0856,0.0829,0.0809,0.0792,0.0781,0.0753,0.0736,0.0733,0.0715,0.0689,0.0668,0.0638,0.0614,0.0563,0.055,0.0521,0.0523,0.0493,0.0518,0.052,0.0523,0.0525,0.0522,0.0488,0.0487,0.0486,0.0486,0,0.0784,0.0783,0.0759,0.0734,0.0714,0.0694,0.0674,0.066,0.0654,0.0633,0.0602,0.0584,0.0546,0.0516,0.0487,0.0474,0.0479,0.0478,0.047,0.0471,0.0476,0.0474,0.0561,0.048,0.0481,0.0481,0.0481,0.0482,0.0733,0.0711,0.0693,0.0666,0.0652,0.0634,0.0612,0.0603,0.0578,0.0548,0.0548,0.0514,0.0494,0.0456,0.0442,0.0415,0.0424,0.0412,0.0409,0.0407,0.0405,0.048,0.0409,0.041,0.041,0.041,0.041,0,0.0662,0.0653,0.0628,0.0602,0.0581,0.0589,0.0569,0.055,0.0521,0.0503,0.048,0.0445,0.0416,0.0402,0.0373,0.0354,0.0356,0.0347,0.0348,0.0345,0.0398,0.0408,0.0346,0.0346,0.0346,0.0346,0.0346,0.0346,0.0623,0.0586,0.0583,0.0539,0.0529,0.0498,0.0485,0.0469,0.0455,0.0416,0.0393,0.0384,0.0368,0.0338,0.0312,0.0308,0.0298,0.0288,0.0285,0.0335,0.0341,0.0348,0.0357,0.0285,0.0285,0.0235,0.0234,0.0234]}]]